Terug naar catalogus

DRAGON FREEDOM 3

ActiefWetenschapVLEO
NORAD 67796·PAYLOAD·🇺🇸 United States

Gelanceerd Feb 13, 2026 vanaf Cape Canaveral Space Force Station

Loading…

Volgende Passages (komende 24 uur)

TLE

VersSource: Space-Track

Epoch: Sep 14, 2026, 20:28 UTC

1 67796U 26031A   26257.85283187  .00006182  00000-0  11980-3 0  9990
2 67796  51.6309 216.3169 0004923 141.7352 218.3986 15.49117649586621

Volg DRAGON FREEDOM 3 in realtime met AllMySat

Download on the App Store